Date_Time,Julian_Date,Latitude,Longitude,Instrument_Depth,U,V,Speed,Direction
(yyyy-mm-dd hh:mn:ss UTC),(JD),(+ deg. North),(+ deg. East),(m),(cm/s),(cm/s),(cm/s),(deg True)
1982-09-15 18:00:00 UTC,2445228.250000,28.7317,-95.2428,0215,-0.41,-0.91,1.0000,204.0000
1982-09-15 18:30:00 UTC,2445228.270833,28.7317,-95.2428,0215,-1.30,-3.78,4.0000,199.0000
1982-09-15 19:00:00 UTC,2445228.291667,28.7317,-95.2428,0215,-2.25,-5.56,6.0000,202.0000
1982-09-15 19:30:00 UTC,2445228.312500,28.7317,-95.2428,0215,-2.25,-5.56,6.0000,202.0000
1982-09-15 20:00:00 UTC,2445228.333333,28.7317,-95.2428,0215,-2.28,-6.62,7.0000,199.0000
1982-09-15 20:30:00 UTC,2445228.354167,28.7317,-95.2428,0215,-3.00,-7.42,8.0000,202.0000
1982-09-15 21:00:00 UTC,2445228.375000,28.7317,-95.2428,0215,-4.23,-7.95,9.0000,208.0000
1982-09-15 21:30:00 UTC,2445228.395833,28.7317,-95.2428,0215,-4.69,-8.83,10.0000,208.0000
1982-09-15 22:00:00 UTC,2445228.416667,28.7317,-95.2428,0215,-4.65,-9.97,11.0000,205.0000
1982-09-15 22:30:00 UTC,2445228.437500,28.7317,-95.2428,0215,-5.49,-11.78,13.0000,205.0000
1982-09-15 23:00:00 UTC,2445228.458333,28.7317,-95.2428,0215,-5.49,-11.78,13.0000,205.0000
1982-09-15 23:30:00 UTC,2445228.479167,28.7317,-95.2428,0215,-3.91,-11.35,12.0000,199.0000
1982-09-16 00:00:00 UTC,2445228.500000,28.7317,-95.2428,0215,-2.29,-10.76,11.0000,192.0000
1982-09-16 00:30:00 UTC,2445228.520833,28.7317,-95.2428,0215,-2.85,-10.63,11.0000,195.0000
1982-09-16 01:00:00 UTC,2445228.541667,28.7317,-95.2428,0215,-3.76,-10.34,11.0000,200.0000
1982-09-16 01:30:00 UTC,2445228.562500,28.7317,-95.2428,0215,-3.58,-10.40,11.0000,199.0000
1982-09-16 02:00:00 UTC,2445228.583333,28.7317,-95.2428,0215,-3.03,-10.57,11.0000,196.0000
1982-09-16 02:30:00 UTC,2445228.604167,28.7317,-95.2428,0215,-2.59,-9.66,10.0000,195.0000
1982-09-16 03:00:00 UTC,2445228.625000,28.7317,-95.2428,0215,-2.63,-8.61,9.0000,197.0000
1982-09-16 03:30:00 UTC,2445228.645833,28.7317,-95.2428,0215,-2.05,-6.69,7.0000,197.0000
1982-09-16 04:00:00 UTC,2445228.666667,28.7317,-95.2428,0215,-1.45,-5.82,6.0000,194.0000
1982-09-16 04:30:00 UTC,2445228.687500,28.7317,-95.2428,0215,-0.90,-3.90,4.0000,193.0000
1982-09-16 05:00:00 UTC,2445228.708333,28.7317,-95.2428,0215,-0.78,-2.90,3.0000,195.0000
1982-09-16 05:30:00 UTC,2445228.729167,28.7317,-95.2428,0215,-0.28,-1.98,2.0000,188.0000
1982-09-16 06:00:00 UTC,2445228.750000,28.7317,-95.2428,0215,0.14,-2.00,2.0000,176.0000
1982-09-16 06:30:00 UTC,2445228.770833,28.7317,-95.2428,0215,0.00,-2.00,2.0000,180.0000
1982-09-16 07:00:00 UTC,2445228.791667,28.7317,-95.2428,0215,-0.17,-1.99,2.0000,185.0000
1982-09-16 07:30:00 UTC,2445228.812500,28.7317,-95.2428,0215,-0.16,-3.00,3.0000,183.0000
1982-09-16 08:00:00 UTC,2445228.833333,28.7317,-95.2428,0215,-0.31,-2.98,3.0000,186.0000
1982-09-16 08:30:00 UTC,2445228.854167,28.7317,-95.2428,0215,-0.62,-2.93,3.0000,192.0000
1982-09-16 09:00:00 UTC,2445228.875000,28.7317,-95.2428,0215,-0.83,-3.91,4.0000,192.0000
1982-09-16 09:30:00 UTC,2445228.895833,28.7317,-95.2428,0215,-1.12,-4.87,5.0000,193.0000
1982-09-16 10:00:00 UTC,2445228.916667,28.7317,-95.2428,0215,-1.38,-4.81,5.0000,196.0000
1982-09-16 10:30:00 UTC,2445228.937500,28.7317,-95.2428,0215,-1.93,-6.73,7.0000,196.0000
1982-09-16 11:00:00 UTC,2445228.958333,28.7317,-95.2428,0215,-2.47,-7.61,8.0000,198.0000
1982-09-16 11:30:00 UTC,2445228.979167,28.7317,-95.2428,0215,-2.51,-6.54,7.0000,201.0000
1982-09-16 12:00:00 UTC,2445229.000000,28.7317,-95.2428,0215,-1.71,-4.70,5.0000,200.0000
1982-09-16 12:30:00 UTC,2445229.020833,28.7317,-95.2428,0215,-1.38,-4.81,5.0000,196.0000
1982-09-16 13:00:00 UTC,2445229.041667,28.7317,-95.2428,0215,-0.83,-3.91,4.0000,192.0000
1982-09-16 13:30:00 UTC,2445229.062500,28.7317,-95.2428,0215,-0.26,-2.99,3.0000,185.0000
1982-09-16 14:00:00 UTC,2445229.083333,28.7317,-95.2428,0215,0.28,-1.98,2.0000,172.0000
1982-09-16 14:30:00 UTC,2445229.104167,28.7317,-95.2428,0215,1.00,0.00,1.0000,90.0000
1982-09-16 15:00:00 UTC,2445229.125000,28.7317,-95.2428,0215,1.72,2.46,3.0000,35.0000
1982-09-16 15:30:00 UTC,2445229.145833,28.7317,-95.2428,0215,3.09,5.14,6.0000,31.0000
1982-09-16 16:00:00 UTC,2445229.166667,28.7317,-95.2428,0215,3.95,8.09,9.0000,26.0000
1982-09-16 16:30:00 UTC,2445229.187500,28.7317,-95.2428,0215,4.47,10.05,11.0000,24.0000
1982-09-16 17:00:00 UTC,2445229.208333,28.7317,-95.2428,0215,5.26,10.79,12.0000,26.0000
1982-09-16 17:30:00 UTC,2445229.229167,28.7317,-95.2428,0215,6.10,11.48,13.0000,28.0000
1982-09-16 18:00:00 UTC,2445229.250000,28.7317,-95.2428,0215,6.70,11.14,13.0000,31.0000
1982-09-16 18:30:00 UTC,2445229.270833,28.7317,-95.2428,0215,6.71,9.95,12.0000,34.0000
1982-09-16 19:00:00 UTC,2445229.291667,28.7317,-95.2428,0215,5.74,8.19,10.0000,35.0000
1982-09-16 19:30:00 UTC,2445229.312500,28.7317,-95.2428,0215,4.90,7.55,9.0000,33.0000
1982-09-16 20:00:00 UTC,2445229.333333,28.7317,-95.2428,0215,2.91,5.25,6.0000,29.0000
1982-09-16 20:30:00 UTC,2445229.354167,28.7317,-95.2428,0215,1.44,1.39,2.0000,46.0000
1982-09-16 21:00:00 UTC,2445229.375000,28.7317,-95.2428,0215,0.75,-1.85,2.0000,158.0000
1982-09-16 21:30:00 UTC,2445229.395833,28.7317,-95.2428,0215,0.28,-1.98,2.0000,172.0000
1982-09-16 22:00:00 UTC,2445229.416667,28.7317,-95.2428,0215,-0.33,-0.95,1.0000,199.0000
1982-09-16 22:30:00 UTC,2445229.437500,28.7317,-95.2428,0215,-1.58,-1.23,2.0000,232.0000
1982-09-16 23:00:00 UTC,2445229.458333,28.7317,-95.2428,0215,-1.83,-0.81,2.0000,246.0000
1982-09-16 23:30:00 UTC,2445229.479167,28.7317,-95.2428,0215,-2.94,-0.57,3.0000,259.0000
1982-09-17 00:00:00 UTC,2445229.500000,28.7317,-95.2428,0215,-2.87,0.88,3.0000,287.0000
1982-09-17 00:30:00 UTC,2445229.520833,28.7317,-95.2428,0215,-2.36,1.85,3.0000,308.0000
1982-09-17 01:00:00 UTC,2445229.541667,28.7317,-95.2428,0215,-2.23,2.01,3.0000,312.0000
1982-09-17 01:30:00 UTC,2445229.562500,28.7317,-95.2428,0215,-2.19,2.05,3.0000,313.0000
1982-09-17 02:00:00 UTC,2445229.583333,28.7317,-95.2428,0215,-2.16,2.08,3.0000,314.0000
1982-09-17 02:30:00 UTC,2445229.604167,28.7317,-95.2428,0215,-1.85,2.36,3.0000,322.0000
1982-09-17 03:00:00 UTC,2445229.625000,28.7317,-95.2428,0215,-1.75,3.60,4.0000,334.0000
1982-09-17 03:30:00 UTC,2445229.645833,28.7317,-95.2428,0215,-1.17,3.83,4.0000,343.0000
1982-09-17 04:00:00 UTC,2445229.666667,28.7317,-95.2428,0215,-1.21,4.85,5.0000,346.0000
1982-09-17 04:30:00 UTC,2445229.687500,28.7317,-95.2428,0215,-2.16,6.66,7.0000,342.0000
1982-09-17 05:00:00 UTC,2445229.708333,28.7317,-95.2428,0215,-2.87,7.47,8.0000,339.0000
1982-09-17 05:30:00 UTC,2445229.729167,28.7317,-95.2428,0215,-1.85,5.71,6.0000,342.0000
1982-09-17 06:00:00 UTC,2445229.750000,28.7317,-95.2428,0215,-0.52,4.97,5.0000,354.0000
1982-09-17 06:30:00 UTC,2445229.770833,28.7317,-95.2428,0215,-1.05,9.95,10.0000,354.0000
1982-09-17 07:00:00 UTC,2445229.791667,28.7317,-95.2428,0215,-1.72,10.86,11.0000,351.0000
1982-09-17 07:30:00 UTC,2445229.812500,28.7317,-95.2428,0215,-1.72,8.83,9.0000,349.0000
1982-09-17 08:00:00 UTC,2445229.833333,28.7317,-95.2428,0215,-1.69,6.79,7.0000,346.0000
1982-09-17 08:30:00 UTC,2445229.854167,28.7317,-95.2428,0215,-1.24,3.80,4.0000,342.0000
1982-09-17 09:00:00 UTC,2445229.875000,28.7317,-95.2428,0215,-0.00,0.00,0.0000,329.0000
1982-09-17 09:30:00 UTC,2445229.895833,28.7317,-95.2428,0215,0.94,-1.77,2.0000,152.0000
1982-09-17 10:00:00 UTC,2445229.916667,28.7317,-95.2428,0215,1.12,-2.78,3.0000,158.0000
1982-09-17 10:30:00 UTC,2445229.937500,28.7317,-95.2428,0215,-0.42,-2.97,3.0000,188.0000
1982-09-17 11:00:00 UTC,2445229.958333,28.7317,-95.2428,0215,-2.27,-4.46,5.0000,207.0000
1982-09-17 11:30:00 UTC,2445229.979167,28.7317,-95.2428,0215,-2.35,-4.41,5.0000,208.0000
1982-09-17 12:00:00 UTC,2445230.000000,28.7317,-95.2428,0215,-2.25,-5.56,6.0000,202.0000
1982-09-17 12:30:00 UTC,2445230.020833,28.7317,-95.2428,0215,-2.62,-6.49,7.0000,202.0000
1982-09-17 13:00:00 UTC,2445230.041667,28.7317,-95.2428,0215,-2.63,-5.39,6.0000,206.0000
1982-09-17 13:30:00 UTC,2445230.062500,28.7317,-95.2428,0215,-2.82,-5.30,6.0000,208.0000
1982-09-17 14:00:00 UTC,2445230.083333,28.7317,-95.2428,0215,-2.72,-5.35,6.0000,207.0000
1982-09-17 14:30:00 UTC,2445230.104167,28.7317,-95.2428,0215,-1.63,-3.65,4.0000,204.0000
1982-09-17 15:00:00 UTC,2445230.125000,28.7317,-95.2428,0215,-0.75,-1.85,2.0000,202.0000
1982-09-17 15:30:00 UTC,2445230.145833,28.7317,-95.2428,0215,-0.00,0.00,0.0000,279.0000
1982-09-17 16:00:00 UTC,2445230.166667,28.7317,-95.2428,0215,0.19,0.98,1.0000,11.0000
1982-09-17 16:30:00 UTC,2445230.187500,28.7317,-95.2428,0215,1.12,2.78,3.0000,22.0000
1982-09-17 17:00:00 UTC,2445230.208333,28.7317,-95.2428,0215,1.68,2.49,3.0000,34.0000
1982-09-17 17:30:00 UTC,2445230.229167,28.7317,-95.2428,0215,2.01,2.23,3.0000,42.0000
1982-09-17 18:00:00 UTC,2445230.250000,28.7317,-95.2428,0215,1.36,1.46,2.0000,43.0000
1982-09-17 18:30:00 UTC,2445230.270833,28.7317,-95.2428,0215,2.33,1.89,3.0000,51.0000
1982-09-17 19:00:00 UTC,2445230.291667,28.7317,-95.2428,0215,3.60,1.75,4.0000,64.0000
1982-09-17 19:30:00 UTC,2445230.312500,28.7317,-95.2428,0215,3.76,1.37,4.0000,70.0000
1982-09-17 20:00:00 UTC,2445230.333333,28.7317,-95.2428,0215,3.86,1.04,4.0000,75.0000
1982-09-17 20:30:00 UTC,2445230.354167,28.7317,-95.2428,0215,3.00,-0.10,3.0000,92.0000
1982-09-17 21:00:00 UTC,2445230.375000,28.7317,-95.2428,0215,1.12,-1.66,2.0000,146.0000
1982-09-17 21:30:00 UTC,2445230.395833,28.7317,-95.2428,0215,-1.75,-3.60,4.0000,206.0000
1982-09-17 22:00:00 UTC,2445230.416667,28.7317,-95.2428,0215,-4.53,-3.94,6.0000,229.0000
1982-09-17 22:30:00 UTC,2445230.437500,28.7317,-95.2428,0215,-5.94,-3.71,7.0000,238.0000
1982-09-17 23:00:00 UTC,2445230.458333,28.7317,-95.2428,0215,-4.53,-3.94,6.0000,229.0000
1982-09-17 23:30:00 UTC,2445230.479167,28.7317,-95.2428,0215,-4.02,-5.73,7.0000,215.0000
1982-09-18 00:00:00 UTC,2445230.500000,28.7317,-95.2428,0215,-4.24,-6.78,8.0000,212.0000
1982-09-18 00:30:00 UTC,2445230.520833,28.7317,-95.2428,0215,-4.24,-6.78,8.0000,212.0000
1982-09-18 01:00:00 UTC,2445230.541667,28.7317,-95.2428,0215,-4.47,-6.63,8.0000,214.0000
1982-09-18 01:30:00 UTC,2445230.562500,28.7317,-95.2428,0215,-4.31,-5.52,7.0000,218.0000
1982-09-18 02:00:00 UTC,2445230.583333,28.7317,-95.2428,0215,-3.15,-3.89,5.0000,219.0000
1982-09-18 02:30:00 UTC,2445230.604167,28.7317,-95.2428,0215,-1.97,-2.26,3.0000,221.0000
1982-09-18 03:00:00 UTC,2445230.625000,28.7317,-95.2428,0215,-0.66,-0.75,1.0000,221.0000
1982-09-18 03:30:00 UTC,2445230.645833,28.7317,-95.2428,0215,-0.00,-0.00,0.0000,210.0000
1982-09-18 04:00:00 UTC,2445230.666667,28.7317,-95.2428,0215,-0.12,0.99,1.0000,353.0000
1982-09-18 04:30:00 UTC,2445230.687500,28.7317,-95.2428,0215,-0.17,1.99,2.0000,355.0000
1982-09-18 05:00:00 UTC,2445230.708333,28.7317,-95.2428,0215,-0.37,2.98,3.0000,353.0000
1982-09-18 05:30:00 UTC,2445230.729167,28.7317,-95.2428,0215,-0.31,1.98,2.0000,351.0000
1982-09-18 06:00:00 UTC,2445230.750000,28.7317,-95.2428,0215,-0.00,0.00,0.0000,349.0000
1982-09-18 06:30:00 UTC,2445230.770833,28.7317,-95.2428,0215,0.00,-0.00,0.0000,171.0000
1982-09-18 07:00:00 UTC,2445230.791667,28.7317,-95.2428,0215,0.00,-0.00,0.0000,179.0000
1982-09-18 07:30:00 UTC,2445230.812500,28.7317,-95.2428,0215,0.00,-0.00,0.0000,166.0000
1982-09-18 08:00:00 UTC,2445230.833333,28.7317,-95.2428,0215,-0.24,0.97,1.0000,346.0000
1982-09-18 08:30:00 UTC,2445230.854167,28.7317,-95.2428,0215,-1.17,3.83,4.0000,343.0000
1982-09-18 09:00:00 UTC,2445230.875000,28.7317,-95.2428,0215,-3.07,6.29,7.0000,334.0000
1982-09-18 09:30:00 UTC,2445230.895833,28.7317,-95.2428,0215,-4.77,5.12,7.0000,317.0000
1982-09-18 10:00:00 UTC,2445230.916667,28.7317,-95.2428,0215,-5.48,2.44,6.0000,294.0000
1982-09-18 10:30:00 UTC,2445230.937500,28.7317,-95.2428,0215,-3.71,-1.50,4.0000,248.0000
1982-09-18 11:00:00 UTC,2445230.958333,28.7317,-95.2428,0215,-2.01,-2.23,3.0000,222.0000
1982-09-18 11:30:00 UTC,2445230.979167,28.7317,-95.2428,0215,-1.83,-0.81,2.0000,246.0000
1982-09-18 12:00:00 UTC,2445231.000000,28.7317,-95.2428,0215,-1.98,-0.28,2.0000,262.0000
1982-09-18 12:30:00 UTC,2445231.020833,28.7317,-95.2428,0215,-1.75,-0.97,2.0000,241.0000
1982-09-18 13:00:00 UTC,2445231.041667,28.7317,-95.2428,0215,-2.01,-2.23,3.0000,222.0000
1982-09-18 13:30:00 UTC,2445231.062500,28.7317,-95.2428,0215,-1.93,-2.30,3.0000,220.0000
1982-09-18 14:00:00 UTC,2445231.083333,28.7317,-95.2428,0215,-2.88,-2.78,4.0000,226.0000
1982-09-18 14:30:00 UTC,2445231.104167,28.7317,-95.2428,0215,-2.30,-1.93,3.0000,230.0000
1982-09-18 15:00:00 UTC,2445231.125000,28.7317,-95.2428,0215,-1.60,-1.20,2.0000,233.0000
1982-09-18 15:30:00 UTC,2445231.145833,28.7317,-95.2428,0215,-0.00,-0.00,0.0000,250.0000
1982-09-18 16:00:00 UTC,2445231.166667,28.7317,-95.2428,0215,0.00,0.00,0.0000,4.0000
1982-09-18 16:30:00 UTC,2445231.187500,28.7317,-95.2428,0215,0.00,0.00,0.0000,7.0000
1982-09-18 17:00:00 UTC,2445231.208333,28.7317,-95.2428,0215,-0.87,0.50,1.0000,300.0000
1982-09-18 17:30:00 UTC,2445231.229167,28.7317,-95.2428,0215,-0.97,0.24,1.0000,284.0000
1982-09-18 18:00:00 UTC,2445231.250000,28.7317,-95.2428,0215,-1.89,0.65,2.0000,289.0000
1982-09-18 18:30:00 UTC,2445231.270833,28.7317,-95.2428,0215,-0.88,0.47,1.0000,298.0000
1982-09-18 19:00:00 UTC,2445231.291667,28.7317,-95.2428,0215,-0.91,0.42,1.0000,295.0000
1982-09-18 19:30:00 UTC,2445231.312500,28.7317,-95.2428,0215,-0.99,0.14,1.0000,278.0000
1982-09-18 20:00:00 UTC,2445231.333333,28.7317,-95.2428,0215,-2.00,-0.07,2.0000,268.0000
1982-09-18 20:30:00 UTC,2445231.354167,28.7317,-95.2428,0215,-3.00,-0.00,3.0000,270.0000
1982-09-18 21:00:00 UTC,2445231.375000,28.7317,-95.2428,0215,-3.00,0.16,3.0000,273.0000
1982-09-18 21:30:00 UTC,2445231.395833,28.7317,-95.2428,0215,-2.99,-0.21,3.0000,266.0000
1982-09-18 22:00:00 UTC,2445231.416667,28.7317,-95.2428,0215,-3.78,-1.30,4.0000,251.0000
1982-09-18 22:30:00 UTC,2445231.437500,28.7317,-95.2428,0215,-4.29,-2.58,5.0000,239.0000
1982-09-18 23:00:00 UTC,2445231.458333,28.7317,-95.2428,0215,-4.60,-3.86,6.0000,230.0000
1982-09-18 23:30:00 UTC,2445231.479167,28.7317,-95.2428,0215,-6.04,-5.25,8.0000,229.0000
1982-09-19 00:00:00 UTC,2445231.500000,28.7317,-95.2428,0215,-5.85,-5.46,8.0000,227.0000
1982-09-19 00:30:00 UTC,2445231.520833,28.7317,-95.2428,0215,-4.77,-7.63,9.0000,212.0000
1982-09-19 01:00:00 UTC,2445231.541667,28.7317,-95.2428,0215,-3.22,-10.52,11.0000,197.0000
1982-09-19 01:30:00 UTC,2445231.562500,28.7317,-95.2428,0215,-3.03,-10.57,11.0000,196.0000
1982-09-19 02:00:00 UTC,2445231.583333,28.7317,-95.2428,0215,-4.12,-10.20,11.0000,202.0000
1982-09-19 02:30:00 UTC,2445231.604167,28.7317,-95.2428,0215,-4.54,-8.91,10.0000,207.0000
1982-09-19 03:00:00 UTC,2445231.625000,28.7317,-95.2428,0215,-4.69,-8.83,10.0000,208.0000
1982-09-19 03:30:00 UTC,2445231.645833,28.7317,-95.2428,0215,-4.50,-7.79,9.0000,210.0000
1982-09-19 04:00:00 UTC,2445231.666667,28.7317,-95.2428,0215,-4.95,-4.95,7.0000,225.0000
1982-09-19 04:30:00 UTC,2445231.687500,28.7317,-95.2428,0215,-3.97,0.49,4.0000,277.0000
1982-09-19 05:00:00 UTC,2445231.708333,28.7317,-95.2428,0215,-3.86,4.60,6.0000,320.0000
1982-09-19 05:30:00 UTC,2445231.729167,28.7317,-95.2428,0215,-4.93,6.30,8.0000,322.0000
1982-09-19 06:00:00 UTC,2445231.750000,28.7317,-95.2428,0215,-6.92,8.55,11.0000,321.0000
1982-09-19 06:30:00 UTC,2445231.770833,28.7317,-95.2428,0215,-7.21,12.00,14.0000,329.0000
1982-09-19 07:00:00 UTC,2445231.791667,28.7317,-95.2428,0215,-6.91,15.53,17.0000,336.0000
1982-09-19 07:30:00 UTC,2445231.812500,28.7317,-95.2428,0215,-6.64,15.65,17.0000,337.0000
1982-09-19 08:00:00 UTC,2445231.833333,28.7317,-95.2428,0215,-3.58,10.40,11.0000,341.0000
1982-09-19 08:30:00 UTC,2445231.854167,28.7317,-95.2428,0215,0.42,2.97,3.0000,8.0000
1982-09-19 09:00:00 UTC,2445231.875000,28.7317,-95.2428,0215,2.00,-0.03,2.0000,91.0000
1982-09-19 09:30:00 UTC,2445231.895833,28.7317,-95.2428,0215,0.87,0.48,1.0000,61.0000
1982-09-19 10:00:00 UTC,2445231.916667,28.7317,-95.2428,0215,1.71,-1.03,2.0000,121.0000
1982-09-19 10:30:00 UTC,2445231.937500,28.7317,-95.2428,0215,4.17,-4.32,6.0000,136.0000
1982-09-19 11:00:00 UTC,2445231.958333,28.7317,-95.2428,0215,5.46,-5.85,8.0000,137.0000
1982-09-19 11:30:00 UTC,2445231.979167,28.7317,-95.2428,0215,5.66,-5.66,8.0000,135.0000
1982-09-19 12:00:00 UTC,2445232.000000,28.7317,-95.2428,0215,6.82,-7.31,10.0000,137.0000
1982-09-19 12:30:00 UTC,2445232.020833,28.7317,-95.2428,0215,6.69,-7.43,10.0000,138.0000
1982-09-19 13:00:00 UTC,2445232.041667,28.7317,-95.2428,0215,6.82,-7.31,10.0000,137.0000
1982-09-19 13:30:00 UTC,2445232.062500,28.7317,-95.2428,0215,6.02,-7.99,10.0000,143.0000
1982-09-19 14:00:00 UTC,2445232.083333,28.7317,-95.2428,0215,4.36,-7.87,9.0000,151.0000
1982-09-19 14:30:00 UTC,2445232.104167,28.7317,-95.2428,0215,3.95,-8.09,9.0000,154.0000
1982-09-19 15:00:00 UTC,2445232.125000,28.7317,-95.2428,0215,4.50,-7.79,9.0000,150.0000
1982-09-19 15:30:00 UTC,2445232.145833,28.7317,-95.2428,0215,5.03,-7.46,9.0000,146.0000
1982-09-19 16:00:00 UTC,2445232.166667,28.7317,-95.2428,0215,4.70,-6.47,8.0000,144.0000
1982-09-19 16:30:00 UTC,2445232.187500,28.7317,-95.2428,0215,4.59,-5.28,7.0000,139.0000
1982-09-19 17:00:00 UTC,2445232.208333,28.7317,-95.2428,0215,5.95,-5.35,8.0000,132.0000
1982-09-19 17:30:00 UTC,2445232.229167,28.7317,-95.2428,0215,6.71,-4.36,8.0000,123.0000
1982-09-19 18:00:00 UTC,2445232.250000,28.7317,-95.2428,0215,7.76,-1.94,8.0000,104.0000
1982-09-19 18:30:00 UTC,2445232.270833,28.7317,-95.2428,0215,9.93,1.22,10.0000,83.0000
1982-09-19 19:00:00 UTC,2445232.291667,28.7317,-95.2428,0215,11.74,2.49,12.0000,78.0000
1982-09-19 19:30:00 UTC,2445232.312500,28.7317,-95.2428,0215,10.92,1.34,11.0000,83.0000
1982-09-19 20:00:00 UTC,2445232.333333,28.7317,-95.2428,0215,9.00,-0.16,9.0000,91.0000
1982-09-19 20:30:00 UTC,2445232.354167,28.7317,-95.2428,0215,8.91,-1.25,9.0000,98.0000
1982-09-19 21:00:00 UTC,2445232.375000,28.7317,-95.2428,0215,8.61,-2.63,9.0000,107.0000
1982-09-19 21:30:00 UTC,2445232.395833,28.7317,-95.2428,0215,6.78,-4.24,8.0000,122.0000
1982-09-19 22:00:00 UTC,2445232.416667,28.7317,-95.2428,0215,6.69,-6.02,9.0000,132.0000
1982-09-19 22:30:00 UTC,2445232.437500,28.7317,-95.2428,0215,5.42,-7.19,9.0000,143.0000
1982-09-19 23:00:00 UTC,2445232.458333,28.7317,-95.2428,0215,1.94,-7.76,8.0000,166.0000
1982-09-19 23:30:00 UTC,2445232.479167,28.7317,-95.2428,0215,-0.94,-8.95,9.0000,186.0000
1982-09-20 00:00:00 UTC,2445232.500000,28.7317,-95.2428,0215,-2.08,-9.78,10.0000,192.0000
1982-09-20 00:30:00 UTC,2445232.520833,28.7317,-95.2428,0215,-2.47,-10.72,11.0000,193.0000
1982-09-20 01:00:00 UTC,2445232.541667,28.7317,-95.2428,0215,-3.31,-11.54,12.0000,196.0000
1982-09-20 01:30:00 UTC,2445232.562500,28.7317,-95.2428,0215,-3.71,-11.41,12.0000,198.0000
1982-09-20 02:00:00 UTC,2445232.583333,28.7317,-95.2428,0215,-4.50,-11.13,12.0000,202.0000
1982-09-20 02:30:00 UTC,2445232.604167,28.7317,-95.2428,0215,-5.45,-10.69,12.0000,207.0000
1982-09-20 03:00:00 UTC,2445232.625000,28.7317,-95.2428,0215,-5.63,-10.60,12.0000,208.0000
1982-09-20 03:30:00 UTC,2445232.645833,28.7317,-95.2428,0215,-4.07,-9.14,10.0000,204.0000
1982-09-20 04:00:00 UTC,2445232.666667,28.7317,-95.2428,0215,-2.78,-8.56,9.0000,198.0000
1982-09-20 04:30:00 UTC,2445232.687500,28.7317,-95.2428,0215,-2.21,-7.69,8.0000,196.0000
1982-09-20 05:00:00 UTC,2445232.708333,28.7317,-95.2428,0215,-2.74,-7.52,8.0000,200.0000
1982-09-20 05:30:00 UTC,2445232.729167,28.7317,-95.2428,0215,-2.74,-6.44,7.0000,203.0000
1982-09-20 06:00:00 UTC,2445232.750000,28.7317,-95.2428,0215,-2.34,-5.52,6.0000,203.0000
1982-09-20 06:30:00 UTC,2445232.770833,28.7317,-95.2428,0215,-1.95,-5.67,6.0000,199.0000
1982-09-20 07:00:00 UTC,2445232.791667,28.7317,-95.2428,0215,-2.44,-5.48,6.0000,204.0000
1982-09-20 07:30:00 UTC,2445232.812500,28.7317,-95.2428,0215,-2.29,-3.28,4.0000,215.0000
1982-09-20 08:00:00 UTC,2445232.833333,28.7317,-95.2428,0215,-0.84,-0.54,1.0000,237.0000
1982-09-20 08:30:00 UTC,2445232.854167,28.7317,-95.2428,0215,-0.17,0.98,1.0000,350.0000
1982-09-20 09:00:00 UTC,2445232.875000,28.7317,-95.2428,0215,0.38,1.96,2.0000,11.0000
1982-09-20 09:30:00 UTC,2445232.895833,28.7317,-95.2428,0215,1.63,4.73,5.0000,19.0000
1982-09-20 10:00:00 UTC,2445232.916667,28.7317,-95.2428,0215,3.52,8.28,9.0000,23.0000
1982-09-20 10:30:00 UTC,2445232.937500,28.7317,-95.2428,0215,6.88,9.83,12.0000,35.0000
1982-09-20 11:00:00 UTC,2445232.958333,28.7317,-95.2428,0215,9.43,5.67,11.0000,59.0000
1982-09-20 11:30:00 UTC,2445232.979167,28.7317,-95.2428,0215,11.95,1.05,12.0000,85.0000
1982-09-20 12:00:00 UTC,2445233.000000,28.7317,-95.2428,0215,11.98,-0.63,12.0000,93.0000
1982-09-20 12:30:00 UTC,2445233.020833,28.7317,-95.2428,0215,13.90,1.71,14.0000,83.0000
1982-09-20 13:00:00 UTC,2445233.041667,28.7317,-95.2428,0215,14.27,4.64,15.0000,72.0000
1982-09-20 13:30:00 UTC,2445233.062500,28.7317,-95.2428,0215,12.84,2.03,13.0000,81.0000
1982-09-20 14:00:00 UTC,2445233.083333,28.7317,-95.2428,0215,10.27,-3.94,11.0000,111.0000
1982-09-20 14:30:00 UTC,2445233.104167,28.7317,-95.2428,0215,8.55,-6.92,11.0000,129.0000
1982-09-20 15:00:00 UTC,2445233.125000,28.7317,-95.2428,0215,7.78,-7.78,11.0000,135.0000
1982-09-20 15:30:00 UTC,2445233.145833,28.7317,-95.2428,0215,7.64,-7.91,11.0000,136.0000
1982-09-20 16:00:00 UTC,2445233.166667,28.7317,-95.2428,0215,8.63,-8.34,12.0000,134.0000
1982-09-20 16:30:00 UTC,2445233.187500,28.7317,-95.2428,0215,7.77,-6.29,10.0000,129.0000
1982-09-20 17:00:00 UTC,2445233.208333,28.7317,-95.2428,0215,7.19,-3.51,8.0000,116.0000
1982-09-20 17:30:00 UTC,2445233.229167,28.7317,-95.2428,0215,6.87,-1.34,7.0000,101.0000
1982-09-20 18:00:00 UTC,2445233.250000,28.7317,-95.2428,0215,6.96,-0.73,7.0000,96.0000
1982-09-20 18:30:00 UTC,2445233.270833,28.7317,-95.2428,0215,5.99,0.42,6.0000,86.0000
1982-09-20 19:00:00 UTC,2445233.291667,28.7317,-95.2428,0215,7.76,1.94,8.0000,76.0000
1982-09-20 19:30:00 UTC,2445233.312500,28.7317,-95.2428,0215,8.69,2.33,9.0000,75.0000
1982-09-20 20:00:00 UTC,2445233.333333,28.7317,-95.2428,0215,9.74,2.25,10.0000,77.0000
1982-09-20 20:30:00 UTC,2445233.354167,28.7317,-95.2428,0215,10.80,2.10,11.0000,79.0000
1982-09-20 21:00:00 UTC,2445233.375000,28.7317,-95.2428,0215,11.95,1.05,12.0000,85.0000
1982-09-20 21:30:00 UTC,2445233.395833,28.7317,-95.2428,0215,12.98,-0.68,13.0000,93.0000
1982-09-20 22:00:00 UTC,2445233.416667,28.7317,-95.2428,0215,13.83,-2.19,14.0000,99.0000
1982-09-20 22:30:00 UTC,2445233.437500,28.7317,-95.2428,0215,14.67,-3.12,15.0000,102.0000
1982-09-20 23:00:00 UTC,2445233.458333,28.7317,-95.2428,0215,16.74,-2.95,17.0000,100.0000
1982-09-20 23:30:00 UTC,2445233.479167,28.7317,-95.2428,0215,15.91,-1.67,16.0000,96.0000
1982-09-21 00:00:00 UTC,2445233.500000,28.7317,-95.2428,0215,12.90,-1.58,13.0000,97.0000
1982-09-21 00:30:00 UTC,2445233.520833,28.7317,-95.2428,0215,9.78,-2.08,10.0000,102.0000
1982-09-21 01:00:00 UTC,2445233.541667,28.7317,-95.2428,0215,6.66,-2.16,7.0000,108.0000
1982-09-21 01:30:00 UTC,2445233.562500,28.7317,-95.2428,0215,1.93,-2.30,3.0000,140.0000
1982-09-21 02:00:00 UTC,2445233.583333,28.7317,-95.2428,0215,-2.05,-2.19,3.0000,223.0000
1982-09-21 02:30:00 UTC,2445233.604167,28.7317,-95.2428,0215,-3.46,-2.00,4.0000,240.0000
1982-09-21 03:00:00 UTC,2445233.625000,28.7317,-95.2428,0215,-3.39,-2.12,4.0000,238.0000
1982-09-21 03:30:00 UTC,2445233.645833,28.7317,-95.2428,0215,-3.06,-2.57,4.0000,230.0000
1982-09-21 04:00:00 UTC,2445233.666667,28.7317,-95.2428,0215,-0.98,-2.84,3.0000,199.0000
1982-09-21 04:30:00 UTC,2445233.687500,28.7317,-95.2428,0215,1.50,-3.71,4.0000,158.0000
1982-09-21 05:00:00 UTC,2445233.708333,28.7317,-95.2428,0215,3.72,-3.35,5.0000,132.0000
1982-09-21 05:30:00 UTC,2445233.729167,28.7317,-95.2428,0215,4.70,-1.71,5.0000,110.0000
1982-09-21 06:00:00 UTC,2445233.750000,28.7317,-95.2428,0215,4.87,-1.12,5.0000,103.0000
1982-09-21 06:30:00 UTC,2445233.770833,28.7317,-95.2428,0215,4.97,-3.36,6.0000,124.0000
1982-09-21 07:00:00 UTC,2445233.791667,28.7317,-95.2428,0215,2.74,-7.52,8.0000,160.0000
1982-09-21 07:30:00 UTC,2445233.812500,28.7317,-95.2428,0215,0.78,-8.97,9.0000,175.0000
1982-09-21 08:00:00 UTC,2445233.833333,28.7317,-95.2428,0215,1.72,-8.83,9.0000,169.0000